Погода Новотроицкое

Погода Новотроицкое : погода сейчас, прогноз погоды и архив. Всё, что Вы хотите узнать о погоде Новотроицкое!

Хотите узнать прогноз погоды Новотроицкое? Тогда Вам сюда: Погода Новотроицкое

Поиск расширенной информации на нашем сайте:

Другие новости

Новости СМИ2

Главная страница сайта

Новости сайта

02.10.2013

Напоминаем, что на нашем новом сайте вы можете получить высокодетализированные прогнозы погоды по пунктам России, СНГ и мира (включающие важные для авиации метеовеличины, такие как направление и скорость ветра, видимость, явления погоды, количество и форма облачности, нижняя и верхняя граница облачности), а также ознакомиться с разнообразными материалами по авиационной метеорологии и подборкой полезных ссылок на эту тему.

Сайт Метеоцентр.Азия посвящён разработке технологий оптимизации авиаметеорологического обслуживания, включая проектирование и перспективное создание нескольких автоматизированных авиаметеорологических систем:
- система выпуска высокодетальных прогностических карт явлений погоды для нижнего воздушного пространства по России и ближнему зарубежью;
- система верификации прогнозов TAF (выпускаемых синоптиками официальных АМСГ РФ и ближнего зарубежья) и AUTOTAF (выпускаемых сайтом Метеоцентр.Азия) - выявление ошибок, онлайн-сопоставление с фактической погодой METAR, автоматическое внесение коррективов в прогнозы при резком отклонении фактической погоды от прогноза, подсчёт оправдываемости прогнозов по элементам и в целом;
- система обработки, анализа и отображения авиаметеорологической информации для применения провайдерами метеорологической информации.

Рекомендуем: Полог брезентовый 3х5м утепленный www.korona-len.ru.

Погода Новотроицкое - сегодня

Время (UTC), дата Ветер
(°,м/с) 
Видим.   Явления Облачность Т
(°С)
Тd
(°С)
f(%) Тe
(°С)
Pmin
(гПа)
dP
(гПа)
Po
(мм)
O2
(г/м3)
Тmin Tmax R s Состояние
почвы
00 24.03.17 тихо ()   10 км    8/8 1000 м 
[Sc]
+2.7 -0.3 81 +3  1022.3  -1.2  725  289           
03 24.03.17 230 (ЮЗ) 20000 м    8/0 средняя 
[Ac lent]
+4.9 +2.4 84 +6  1021  -0.8  724  286           
06 24.03.17 270 (З) 20000 м    10/0 средняя 
[Ac As]
+15.1 +7 58 +16  1017.5  -1.4  723  275  +2.6         
09 24.03.17 320 (СЗ) 20000 м    8/0 средняя 
[Ac trans]
+21.9 +4 31 +22  1013.9  -2.2  722  269           
12 24.03.17 180 (Ю) 20000 м    10/0 средняя 
[Ac As]
+21.1 +2.7 30 +21  1012.8  -1.2  721  269           
15 24.03.17 140 (ЮВ) 10 км    10/10 600 м 
[Sc]
+14.4 +6.1 57 +15  1015.4  1.3  722  275    +23       
18 24.03.17 270 (З) 10 км    8/8 1000 м 
[Sc]
+10.8 +6.5 75 +10  1017.9  1.8  723  279    +23       
21 24.03.17 230 (ЮЗ) 10 км    8/8 1000 м 
[Sc]
+9 +5.5 79 +9  1021  2.5  725  282           
00 25.03.17 230 (ЮЗ) 10 км    8/8 1000 м 
[Sc]
+3.4 +1.3 86 +3  1023.3  726  289           
03 25.03.17 140 (ЮВ) 20000 м    8/8 1000 м 
[Sc]
+5.5 +3.1 85 +5  1023.5  0.6  726  286           
06 25.03.17 050 (СВ) 20000 м    8/0 средняя 
[Ac trans]
+12 +6.5 69 +13  1020.5  -1.5  725  279  +3.3         
09 25.03.17 320 (СЗ) 20000 м    8/0 средняя 
[Ac trans]
+16.4 +5.3 48 +17  1017.6  -2  724  274           
12 25.03.17 360 (С) 20000 м    8/3 1000 м средняя 
[Sc|Ac trans]
+16.2 +6.7 53 +17  1016.4  -1.1  723  274           
15 25.03.17 050 (СВ) 10 км    6/0 средняя 
[Ac trans]
+11.8 +4.5 61 +12  1017.3  723  278    +17       
18 25.03.17 050 (СВ) 10 км    6/0 средняя 
[Ac trans]
+9.2 +3.4 67 +9  1017.6  -0.2  723  281    +17       
21 25.03.17 050 (СВ) 10 км    10/0 средняя 
[Ac As]
+8.4 +3.8 73 +8  1016.8  -0.9  722  282           
00 26.03.17 360 (С) 10 км    10/0 средняя 
[Ac As]
+5.8 +4.2 89 +7  1018.1  0.7  722  284           
03 26.03.17 140 (ЮВ) 20000 м    10/10 600 м 
+7.2 +5.6 90 +8  1018.4  0.6  723  283           
06 26.03.17 270 (З) 20000 м    10/0 
[Sc]
+9.2 +5 75 +9  1021.1  2.9  725  282  +5.7         
09 26.03.17 270 (З) 20000 м    10/10 600 м 
[Sc]
+7.4 +4.1 80 +7  1022.7  1.1  726  284           
12 26.03.17 270 (З) 10 км  слаб. дождь  10/10 300 м 
[Ns]
+4.9 +3 87 +5  1024.6  1.4  727  287           
15 26.03.17 тихо ()   10 км    10/10 600 м 
[Sc]
+4.4 +3.4 93 +4  1025.7  0.9  728  288    +9.9  0.9     
18 26.03.17 тихо ()   10 км    10/10 1000 м 
[Sc]
+4.1 +2.6 90 +4  1025.9  0.2  728  288    +9.9  0.9     
21 26.03.17 тихо ()   10 км    8/8 1000 м 
[Sc]
+4 +2.2 88 +4  1026.6  0.6  728  289           
00 27.03.17 тихо ()   10 км    10/10 1000 м 
[Sc]
+3.8 +2 88 +4  1026.7  0.1  728  289           
Время (UTC), дата Ветер
(°,м/с) 
Видим.   Явления Облачность Т
(°С)
Тd
(°С)
f(%) Тe
(°С)
Pmin
(гПа)
dP
(гПа)
Po
(мм)
O2
(г/м3)
Тmin Tmax R s Состояние
почвы

Для получения пояснительной информации подведите курсор к названию столбца.

ПОГОДА Новотроицкое - архив

Всё, что Вы хотите узнать о погоде Новотроицкое - удобно и подробно!

Выберите нужную дату (начиная с 1 января 2015* года) и нажмите кнопку "Найти".
Будут отображены архивные сводки погоды по пункту Новотроицкое, начиная с указанной даты.


Отображать данные в формате CSV (для использования в таблицах Excel)


Внимание! Наш архив погоды предназначен исключительно для личного некоммерческого использования в познавательных целях. Если Вам необходимы официальные справки о состоянии погоды (для производственных, юридических, коммерческих и т.п. целей), обращайтесь в органы Росгидромета.

*Примечание: данная дата относится к архиву по метеостанциям СССР (Россия, СНГ, Балтия).
Архив по метеостанциям Зарубежной Европы и Азии (кроме Китая) хранится 10 дней, по другим регионам земного шара (Китай, Африка, Америка, Австралия, Океания) - 1 день.

Новотроицкое - район местоположения метеостанции


Название, широта, долгота, высота метеостанции:
Новотроицкое 43.7°ш. 73.8°д. 456 м над ур. моря [Казахстан]

Дополнительная информация

В oтличие oт бoльшинства пoгoдных сайтoв мы публикуем пoдрoбную метеoинфoрмацию в детальнoм прoфессиoнальнoм фoрмате.

Характеристики температуры и влажнoсти вoздуха измеряются на высoте 2 м в тени вдали oт зданий и деревьев.
Скoрoсть ветра измеряется на высoте 10 м (на урoвне рoста челoвека скoрoсть ветра ниже в 1.5-2 раза). Если метеoстанция нахoдится в гoрoде или в лесу, тo скoрoсть ветра занижена на 2-4 м/с пo сравнению с oткрытым местoм. Скoрoсть ветра над акватoриями крупных рек и oзёр, а также на вершинах хoлмoв на 2-5 м/с выше, чем в oбычных услoвиях.
Атмoсфернoе давление в разных тoчках местнoсти мoжет значительнo oтличаться oт давления на метеoстанции, в зависимoсти oт услoвий рельефа (при пoдъёме на 10 м давление пoнижается примернo на 1 мм рт.ст.).